Regional Weather Roundup
Issued by NWS

Home | Current Version | Previous Version | Graphics & Text | Print | Product List | Glossary On
Versions: 1 2 3 4 5 6 7 8 9 10 11 12 13 14 15 16 17 18 19 20 21 22 23 24 25 26 27 28 29 30 31 32 33 34 35 36 37 38 39 40 41 42 43 44 45 46 47 48 49
000
ASUS45 KCYS 281610
RWRWY

WYOMING REGIONAL WEATHER ROUNDUP
NATIONAL WEATHER SERVICE CHEYENNE WY
1000 AM MDT MON JUL 28 2014

NOTE:  "FAIR" INDICATES FEW OR NO CLOUDS BELOW 12,000 FEET
WITH NO SIGNIFICANT WEATHER AND/OR OBSTRUCTIONS TO VISIBILITY.

WYZ001-281700-
YELLOWSTONE NATIONAL PARK

CITY           SKY/WX    TMP DP  RH WIND       PRES   REMARKS
LK YELLOWSTONE   N/A     63  36  36 CALM      30.53S
W YELLOWSTONE  NOT AVBL

$$
WYZ002>013-054>058-071-098>099-281700-
NORTHERN WYOMING

CITY           SKY/WX    TMP DP  RH WIND       PRES   REMARKS
JACKSON        NOT AVBL
CODY           NOT AVBL
GREYBULL       SUNNY     78  45  30 CALM      30.26F
WORLAND        SUNNY     76  43  30 N7        30.28F
SHERIDAN       SUNNY     74  50  42 CALM      30.31S
BUFFALO        SUNNY     71  45  39 SE7       30.37S
GILLETTE       SUNNY     73  50  44 S13       30.34F
HULETT         FAIR      72  48  43 MISG      30.36
NEWCASTLE      FAIR      73  45  35 MISG      30.36

$$
WYZ014>020-022>026-101>103-281700-
CENTRAL WYOMING

CITY           SKY/WX    TMP DP  RH WIND       PRES   REMARKS
BIG PINEY      MOSUNNY   74  35  24 E7        30.47S
PINEDALE       SUNNY     70  39  32 NW6       30.47F
DUBOIS         FAIR      68  34  28 CALM      30.47F
LANDER         SUNNY     77  41  27 VRB7      30.36S
RIVERTON       SUNNY     73  41  31 SE5       30.36F
CASPER         SUNNY     71  48  43 VRB3      30.37S
DOUGLAS        SUNNY     73  49  42 VRB5      30.36F

$$
WYZ021-027>030-104>119-281700-
SOUTHERN WYOMING

CITY           SKY/WX    TMP DP  RH WIND       PRES   REMARKS
EVANSTON       PTSUNNY   72  35  25 CALM      30.44S
KEMMERER       MOSUNNY  N/A N/A N/A NE8       30.46S
FORT BRIDGER   FAIR      71  40  32 NW3       30.46S
ROCK SPRINGS   SUNNY     77  48  35 E9        30.41F
DIXON          FAIR      79  42  26 SW7       30.43F
RAWLINS        SUNNY     73  50  44 VRB3      30.44S
SARATOGA       FAIR      72  46  40 SE3       30.45F
LARAMIE        SUNNY     69  53  56 CALM      30.47F
CHEYENNE       SUNNY     72  55  55 E9        30.41S
TORRINGTON     SUNNY     71  52  50 SE9       30.33S
PINE BLUFFS    FAIR      75  54  46 E5        30.38S

$$


USA.gov is the U.S. government's official web portal to all federal, state and local government web resources and services.